Weather History for Wichita Falls, TX

Change the Weather History Date:

Wednesday, May 8, 2013

  Actual Average (KSPS) Record (KSPS)
Temperature  
Mean Temperature 78 °F 69 °F  
Max Temperature 89 °F 82 °F 103 °F (2011)
Min Temperature 66 °F 57 °F 40 °F (1938)
Cooling Degree Days 12 5  
Month to date cooling degree days 37  
Year to date cooling degree days 129  
Growing Degree Days 28 (Base 50)    
Moisture  
Dew Point 54 °F    
Average Humidity 46    
Maximum Humidity 72    
Minimum Humidity 31    
Precipitation  
Precipitation 0.00 in 0.11 in 1.30 in (1940)
Month to date precipitation 0.89  
Year to date precipitation 8.59  
Sea Level Pressure  
Sea Level Pressure 29.89 in    
Wind  
Wind Speed 13 mph (SSE)    
Max Wind Speed 24 mph    
Max Gust Speed 31 mph    
Visibility 10 miles    
Events Rain , Thunderstorm    
T = Trace of Precipitation, MM = Missing Value Source: NWS Daily Summary

Daily Weather History Graph

Daily Weather History Graph

Search for Another Location

Airport:

Trip Planner

Search our weather history database for the weather conditions in past years. The results will help you decide how hot, cold, wet, or windy it might be!

Date:

Astronomy

May. 08, 2013 Rise Set
Actual Time 6:38 AM CDT 8:23 PM CDT
Civil Twilight 6:11 AM CDT 8:50 PM CDT
Nautical Twilight 5:38 AM CDT 9:23 PM CDT
Astronomical Twilight 5:03 AM CDT 9:57 PM CDT
Moon 5:43 AM CDT (5/8) 7:24 PM CDT (5/8)
Length of Visible Light 14h 39m
Length of Day
13h 44m
Waning Crescent, 2% of the Moon is Illuminated
May 8
Waning Crescent
May 9
New
May 17
First Quarter
May 24
Full
May 31
Last Quarter

Hourly Weather History & Observations

Time (CDT) Temp. Heat Index Dew Point Humidity Pressure Visibility Wind Dir Wind Speed Gust Speed Precip Events Conditions
12:15 AM 70.2 °F - 47.7 °F 45% 29.94 in 10.0 mi SE 11.5 mph - N/A   Clear
12:35 AM 70.2 °F - 47.5 °F 44% 29.95 in 10.0 mi SE 10.4 mph - N/A   Clear
12:55 AM 69.8 °F - 47.7 °F 45% 29.95 in 10.0 mi SE 9.2 mph - N/A   Clear
1:15 AM 68.9 °F - 48.2 °F 48% 29.95 in 10.0 mi SSE 9.2 mph - N/A   Clear
1:35 AM 68.4 °F - 48.2 °F 48% 29.94 in 10.0 mi SE 12.7 mph - N/A   Clear
1:55 AM 68.0 °F - 47.8 °F 48% 29.92 in 10.0 mi SE 13.8 mph - N/A   Clear
2:15 AM 67.6 °F - 47.5 °F 48% 29.91 in 10.0 mi SSE 17.3 mph - N/A   Clear
2:35 AM 67.6 °F - 47.5 °F 48% 29.91 in 10.0 mi SSE 13.8 mph 19.6 mph N/A   Clear
2:55 AM 67.8 °F - 47.3 °F 48% 29.89 in 10.0 mi SSE 13.8 mph - N/A   Clear
3:15 AM 67.5 °F - 47.5 °F 49% 29.90 in 10.0 mi SSE 9.2 mph - N/A   Clear
3:35 AM 66.4 °F - 47.8 °F 51% 29.90 in 10.0 mi SSE 8.1 mph - N/A   Clear
3:55 AM 66.2 °F - 48.0 °F 52% 29.90 in 10.0 mi SSE 9.2 mph - N/A   Clear
4:15 AM 66.2 °F - 48.0 °F 52% 29.89 in 10.0 mi SE 9.2 mph - N/A   Clear
4:35 AM 67.3 °F - 47.7 °F 49% 29.88 in 10.0 mi SE 11.5 mph 17.3 mph N/A   Clear
4:55 AM 67.3 °F - 48.2 °F 50% 29.88 in 10.0 mi SE 12.7 mph 18.4 mph N/A   Clear
5:15 AM 67.3 °F - 47.8 °F 50% 29.88 in 10.0 mi SSE 10.4 mph - N/A   Clear
5:35 AM 67.6 °F - 47.7 °F 49% 29.88 in 10.0 mi SSE 12.7 mph - N/A   Clear
5:55 AM 68.5 °F - 47.5 °F 47% 29.90 in 10.0 mi South 8.1 mph - N/A   Clear
6:15 AM 66.7 °F - 48.2 °F 51% 29.90 in 10.0 mi South 5.8 mph - N/A   Clear
6:35 AM 68.5 °F - 47.3 °F 47% 29.91 in 10.0 mi SSW 8.1 mph - N/A   Clear
6:55 AM 68.4 °F - 47.3 °F 47% 29.91 in 10.0 mi South 6.9 mph - N/A   Clear
7:15 AM 67.3 °F - 47.8 °F 50% 29.92 in 5.0 mi SSE 8.1 mph - N/A   Haze
7:35 AM 68.7 °F - 48.2 °F 48% 29.92 in 10.0 mi SSE 9.2 mph - N/A   Clear
7:55 AM 70.2 °F - 48.4 °F 46% 29.92 in 10.0 mi SSE 11.5 mph - N/A   Clear
8:15 AM 70.2 °F - 48.9 °F 47% 29.92 in 10.0 mi SSE 9.2 mph - N/A   Clear
8:35 AM 71.1 °F - 49.8 °F 47% 29.93 in 10.0 mi SSE 8.1 mph - N/A   Clear
8:55 AM 72.5 °F - 50.5 °F 46% 29.93 in 10.0 mi SSE 8.1 mph - N/A   Clear
9:15 AM 75.0 °F - 51.4 °F 44% 29.94 in 10.0 mi South 16.1 mph 19.6 mph N/A   Clear
9:35 AM 77.0 °F - 52.2 °F 42% 29.93 in 10.0 mi South 15.0 mph 20.7 mph N/A   Clear
9:55 AM 78.1 °F - 53.2 °F 42% 29.93 in 10.0 mi South 16.1 mph 24.2 mph N/A   Clear
10:15 AM 79.7 °F - 53.8 °F 41% 29.94 in 10.0 mi South 16.1 mph - N/A   Clear
10:35 AM 79.9 °F - 54.1 °F 41% 29.94 in 10.0 mi South 15.0 mph 23.0 mph N/A   Clear
10:55 AM 81.7 °F 81.1 °F 54.5 °F 39% 29.93 in 10.0 mi South 17.3 mph 23.0 mph N/A   Clear
11:15 AM 82.4 °F 81.7 °F 55.4 °F 39% 29.93 in 10.0 mi South 15.0 mph 23.0 mph N/A   Clear
11:35 AM 83.5 °F 82.5 °F 55.6 °F 38% 29.93 in 10.0 mi South 16.1 mph 23.0 mph N/A   Clear
11:55 AM 84.2 °F 83.2 °F 55.8 °F 38% 29.92 in 10.0 mi South 17.3 mph 24.2 mph N/A   Clear
12:15 PM 84.7 °F 83.7 °F 56.3 °F 38% 29.92 in 10.0 mi South 12.7 mph 21.9 mph N/A   Clear
12:35 PM 85.5 °F 84.1 °F 55.8 °F 36% 29.92 in 10.0 mi South 18.4 mph 25.3 mph N/A   Clear
12:55 PM 85.6 °F 84.1 °F 55.4 °F 35% 29.91 in 10.0 mi SSE 16.1 mph 27.6 mph N/A   Clear
1:15 PM 86.9 °F 85.3 °F 55.2 °F 34% 29.90 in 10.0 mi SSE 18.4 mph 24.2 mph N/A   Clear
1:35 PM 85.3 °F 83.8 °F 54.7 °F 35% 29.90 in 10.0 mi South 13.8 mph 20.7 mph N/A   Clear
1:55 PM 86.7 °F 85.1 °F 54.9 °F 34% 29.90 in 10.0 mi South 19.6 mph 25.3 mph N/A   Scattered Clouds
2:15 PM 87.4 °F 85.7 °F 54.7 °F 33% 29.90 in 10.0 mi SSE 21.9 mph 27.6 mph N/A   Clear
2:35 PM 86.9 °F 85.1 °F 54.7 °F 33% 29.89 in 10.0 mi South 18.4 mph 25.3 mph N/A   Clear
2:55 PM 89.6 °F 87.7 °F 54.9 °F 31% 29.88 in 10.0 mi SSE 17.3 mph 25.3 mph N/A   Clear
3:35 PM 88.7 °F 86.9 °F 54.9 °F 32% 29.87 in 10.0 mi South 17.3 mph 26.5 mph N/A   Scattered Clouds
3:55 PM 86.7 °F 85.1 °F 55.0 °F 34% 29.86 in 10.0 mi SSE 16.1 mph 24.2 mph N/A   Scattered Clouds
4:15 PM 87.4 °F 85.9 °F 55.8 °F 34% 29.84 in 10.0 mi South 18.4 mph 25.3 mph N/A   Clear
4:35 PM 88.2 °F 86.7 °F 56.1 °F 34% 29.83 in 10.0 mi South 23.0 mph 28.8 mph N/A   Scattered Clouds
4:55 PM 87.3 °F 85.9 °F 56.3 °F 35% 29.83 in 10.0 mi SSE 24.2 mph 29.9 mph N/A   Scattered Clouds
5:15 PM 86.0 °F 84.9 °F 57.2 °F 37% 29.83 in 10.0 mi SSE 17.3 mph 27.6 mph N/A   Mostly Cloudy
5:35 PM 85.3 °F 84.4 °F 57.6 °F 39% 29.82 in 10.0 mi South 20.7 mph - N/A   Mostly Cloudy
5:55 PM 84.2 °F 83.8 °F 58.6 °F 42% 29.82 in 10.0 mi SSE 17.3 mph 26.5 mph N/A   Scattered Clouds
6:15 PM 83.3 °F 83.2 °F 59.0 °F 44% 29.81 in 10.0 mi South 19.6 mph 29.9 mph N/A   Scattered Clouds
6:35 PM 82.0 °F 82.1 °F 59.0 °F 45% 29.82 in 10.0 mi South 23.0 mph 29.9 mph N/A   Mostly Cloudy
6:55 PM 81.7 °F 81.9 °F 59.0 °F 46% 29.84 in 10.0 mi South 17.3 mph 27.6 mph N/A   Mostly Cloudy
7:15 PM 81.0 °F 81.3 °F 59.2 °F 47% 29.85 in 10.0 mi South 20.7 mph 31.1 mph N/A   Overcast
7:35 PM 80.1 °F 80.9 °F 60.1 °F 50% 29.87 in 10.0 mi South 16.1 mph 24.2 mph N/A Rain , Thunderstorm Rain
7:55 PM 78.4 °F - 60.8 °F 55% 29.87 in 10.0 mi South 15.0 mph 24.2 mph N/A Thunderstorm Unknown
8:15 PM 75.2 °F - 62.8 °F 65% 29.83 in 10.0 mi South 17.3 mph 28.8 mph N/A Thunderstorm Unknown
8:35 PM 74.7 °F - 61.9 °F 64% 29.78 in 10.0 mi SSE 18.4 mph 26.5 mph N/A Thunderstorm Scattered Clouds
8:55 PM 74.3 °F - 61.9 °F 65% 29.81 in 10.0 mi South 13.8 mph - N/A   Clear
9:15 PM 74.3 °F - 61.7 °F 65% 29.82 in 10.0 mi South 15.0 mph 20.7 mph N/A   Clear
9:35 PM 74.3 °F - 61.2 °F 63% 29.84 in 10.0 mi SSE 11.5 mph - N/A   Clear
10:15 PM 72.7 °F - 61.7 °F 68% 29.85 in 10.0 mi SE 9.2 mph - N/A   Clear
10:35 PM 72.1 °F - 61.7 °F 70% 29.86 in 10.0 mi SE 10.4 mph - N/A   Clear
11:35 PM 70.7 °F - 60.4 °F 70% 29.87 in 10.0 mi SE 8.1 mph - N/A   Clear
11:55 PM 70.0 °F - 60.4 °F 72% 29.87 in 10.0 mi SSE 8.1 mph - N/A   Clear